Weather Roundup
Issued by NWS

Home | Current Version | Previous Version | Graphics & Text | Print | Product List | Glossary Off
Versions: 1 2 3 4 5 6 7 8 9 10 11 12 13 14 15 16 17 18 19 20 21 22 23 24 25 26 27 28 29 30 31 32 33 34 35 36 37 38 39 40 41 42 43 44 45 46 47 48 49 50

015
NZUS93 KARX 221010
HRRWXR

CURRENT HOURLY OBSERVATIONS ACROSS
MUCH OF THE UPPER MISSISSIPPI VALLEY
NATIONAL WEATHER SERVICE LA CROSSE WI
500 AM CDT SUN OCT 22 2017


...SOUTHEAST MINNESOTA...


CITY           SKY/WX    TMP DP  RH WIND       PRES   REMARKS
ROCHESTER      CLOUDY    48  44  86 W9        29.92R
ROCHESTER/MAYO FAIR      50  43  78 W10       29.92R
WINONA         LGT RAIN  52  45  76 NW6       29.91R
AUSTIN         CLOUDY    48  43  81 W6        29.94R
ALBERT LEA     NOT AVBL
DODGE CENTER   CLOUDY    48  43  81 W8        29.92S
PRESTON        CLOUDY    48  43  82 W8        29.94R
OWATONNA       CLOUDY    48  43  81 W7        29.93R
FARIBAULT      CLOUDY    48  43  81 W9        29.93R
$$

...ELSEWHERE IN MINNESOTA...


CITY           SKY/WX    TMP DP  RH WIND       PRES   REMARKS
MINNEAPOLIS    MOCLDY    50  43  77 W8        29.90R
INTNL FALLS    CLOUDY    45  43  93 SW9       29.65S
DULUTH         CLOUDY    45  44  97 W14       29.77R
RED WING       CLOUDY    52  43  71 W8        29.90R
REDWOOD FALLS  CLOUDY    47  38  71 W10       29.94R
MANKATO        CLOUDY    47  41  80 W9        29.94
WORTHINGTON    CLOUDY    41  37  86 SW8       29.97S
FAIRMONT       CLOUDY    47  40  76 W9        29.96R
$$

...SOUTHWEST WISCONSIN...


CITY           SKY/WX    TMP DP  RH WIND       PRES   REMARKS
LA CROSSE      LGT RAIN  54  51  90 W7        29.91R
PRAIRIE DU CHI DRIZZLE   54  50  87 W7        29.92R
BOSCOBEL       LGT RAIN  54  52  93 W3        29.90R
LONE ROCK      LGT RAIN  61  61 100 CALM      29.87R
PLATTEVILLE    CLOUDY    57  57 100 W10       29.89R
FORT MC COY    CLOUDY    51  51  99 CALM      29.90R
MAUSTON-NEW LI CLOUDY   N/A N/A N/A W12       29.88R
VIROQUA        CLOUDY    52  52 100 W6        29.91R
WIS DELLS      CLOUDY    61  57  85 W7        29.86R
$$

...ELSEWHERE IN WISCONSIN...


CITY           SKY/WX    TMP DP  RH WIND       PRES   REMARKS
MILWAUKEE      MOCLDY    61  56  83 SE8       29.91F
MADISON        CLOUDY    65  58  78 S10       29.85F
GREEN BAY      PTCLDY    64  59  83 S12       29.85F
EAU CLAIRE     CLOUDY    51  46  83 W9        29.87R
BLACK RVR FLS  LGT RAIN  53  53  99 W3        29.88S
MEDFORD        CLOUDY    51  49  93 W9        29.86R
WAUSAU         CLOUDY    60  58  92 SW9       29.81S
WIS RAPIDS     CLOUDY    59  58  96 W10       29.85S
MARSHFIELD     CLOUDY    53  50  89 W8        29.84R
RICE LAKE      MOCLDY    49  44  81 SW7       29.88R
$$

...NORTHEAST IOWA...


CITY           SKY/WX    TMP DP  RH WIND       PRES   REMARKS
WATERLOO       LGT RAIN  49  48  97 W3        29.94S
DUBUQUE        CLOUDY    54  54 100 N13       29.89R
DECORAH        LGT RAIN  50  48  93 VRB3      29.93R
MASON CITY     CLOUDY    48  43  82 W10       29.98R
CHARLES CITY   CLOUDY    50  48  93 W5        29.96R
OELWEIN        LGT RAIN  50  50 100 NW8       29.95R
$$

...ELSEWHERE IN IOWA...


CITY           SKY/WX    TMP DP  RH WIND       PRES   REMARKS
DES MOINES     CLOUDY    51  47  86 NW5       29.99R
IOWA CITY      LGT RAIN  54  51  90 NW13      29.94R
FORT DODGE     CLOUDY    49  42  77 NW3       29.98R
MARSHALLTOWN   LGT RAIN  50  48  93 W7        29.97R
CEDAR RAPIDS   LGT RAIN  52  50  93 NW13      29.94R
$$

...NORTHERN ILLINOIS...


CITY           SKY/WX    TMP DP  RH WIND       PRES   REMARKS
CHICAGO-OHARE  CLOUDY    68  57  68 S18       29.93F
CHICAGO-MIDWAY MOCLDY    67  57  70 S9        29.95S
MOLINE         HVY RAIN  62  59  90 W7        29.87R FOG
ROCKFORD       TSTM      63  60  90 S15       29.90R
PEORIA         CLOUDY    68  61  78 S14G22    29.87F THUNDER
$$

NOTE: "FAIR" INDICATES FEW OR NO CLOUDS BELOW 12,000 FEET WITH NO
SIGNIFICANT WEATHER AND/OR OBSTRUCTIONS TO VISIBILITY. WIND
SPEEDS ARE IN MILES-PER-HOUR.




USA.gov is the U.S. government's official web portal to all federal, state and local government web resources and services.